2019-093C

Last updated on Mon Jan 20 2020 00:02:04 GMT+0000 (Coordinated Universal Time)

1 44881U 19093C 20019.51334156 -.00000017 00000-0 47097-5 0 9998 2 44881 97.9744 96.4721 0015987 157.8560 202.3347 14.81405949 4491
UTC large
Height (km)
Speed (km/s)
/
Latitude / Longitude
Inclination (degrees)
Orbital Period (minutes)
Azimuth
Elevation
Range (km)
Doppler Factor

Next 0 passes for location: London (51.5072 / 0.1276)

Sorry there are no passes over London.